Regional Weather Roundup
Issued by NWS

Home | Current Version | Previous Version | Graphics & Text | Print | Product List | Glossary On
Versions: 1 2 3 4 5 6 7 8 9 10 11 12 13 14 15 16 17 18 19 20 21 22 23 24 25 26 27 28 29 30 31 32 33 34 35 36 37 38 39 40 41 42 43 44 45 46 47 48 49 50
000
ASUS45 KBOU 242007
RWRCO

WEATHER ROUNDUP FOR COLORADO
NATIONAL WEATHER SERVICE DENVER/BOULDER CO
200 PM MDT SUN SEP 24 2017

NOTE: "FAIR" INDICATES FEW OR NO CLOUDS BELOW 12000 FEET WITH NO
SIGNIFICANT WEATHER AND/OR OBSTRUCTIONS TO VISIBILITY.

COZ001>005-013-030-031-242100-
...NORTHWEST COLORADO...

CITY           SKY/WX    TMP DP  RH WIND       PRES   REMARKS
CRAIG          PTSUNNY   60  26  27 W17G25    29.90F
HAYDEN         PTSUNNY   54  29  38 NW10G17   29.93F
MEEKER         FAIR      58  21  24 SW23G36   29.91F
RABBIT EARS PA MOCLDY    37  32  81 NW9G16    30.04S
STEAMBOAT SPGS FAIR      54  32  43 W13       29.92S
WALDEN         FAIR      50  37  62 W7        29.95F
$$

COZ006>008-011-242100-
...WEST CENTRAL VALLEYS...

CITY           SKY/WX    TMP DP  RH WIND       PRES   REMARKS
GRAND JUNCTION FAIR      59  33  37 NW10G16   29.92F
MONTROSE       PTSUNNY   60  28  29 W18       29.93S
EAGLE          FAIR      60  30  32 W17G24    29.88F
RIFLE          FAIR      60  32  34 W22G31    29.90S
DELTA          NOT AVBL
NUCLA          FAIR      59  19  21 SW22G28   30.00S
$$

COZ017>023-064>068-242100-
...SOUTHWEST COLORADO...

CITY           SKY/WX    TMP DP  RH WIND       PRES   REMARKS
DURANGO        FAIR      58  26  29 VRB5      29.99F
CORTEZ         FAIR      58  25  28 SW14G22   30.00R
PAGOSA SPRINGS FAIR      55  21  27 SW13G18   30.04F
TELLURIDE      FAIR      49  19  30 S14G25    30.04F
WOLF CREEK PAS PTSUNNY   30  25  80 S16G32    30.19S WCI  19
$$

COZ009-010-012-014-032>034-037-058>063-242100-
...CENTRAL COLORADO...

CITY           SKY/WX    TMP DP  RH WIND       PRES   REMARKS
ASPEN          FAIR      55  33  43 NW18G25   29.88F
BUENA VISTA    FAIR      60  20  21 SE21G32   29.94F
COPPER MTN     CLOUDY    43  19  39 SE21      30.08F
BERTHOUD PASS  HAZE      27  18  69 SE17G39   30.12F VSB<1/4 WCI  14
COTTONWOOD PAS FAIR      54  23  30 SE16G29   30.01F
GUNNISON       FAIR      61   8  12 S21G30    29.89F
KREMMLING      FAIR      63  28  27 W6        29.89F
LEADVILLE      FAIR      50  17  27 S22G30    29.97F
MONARCH PASS   FAIR      41  21  45 S14G25    30.22F
SALIDA         FAIR      63  19  18 SE16G26   30.00F
SUNLIGHT       PTSUNNY   36  30  80 SW12G20   30.06F
WILKERSON PASS FAIR      43  32  65 SW8G22    30.14F
$$

COZ069>075-242100-
...SAN LUIS VALLEY/SANGRE DE CRISTO MOUNTAINS...

CITY           SKY/WX    TMP DP  RH WIND       PRES   REMARKS
ALAMOSA        FAIR      62  17  17 SW21G26   29.97F
DEL NORTE      FAIR      60  19  19 SW9G21    29.97F
LA VETA PASS   FAIR      54  27  35 S10       30.22S
SAGUACHE       FAIR      61  21  21 S17G26    29.95F
$$

COZ035-036-038>040-242100-
...NORTHERN COLORADO FRONT RANGE...

CITY           SKY/WX    TMP DP  RH WIND       PRES   REMARKS
DENVER INTL AP DRIZZLE   47  44  90 E15       29.99F FOG
DMNS CITY PARK   N/A     48  46  93 E8G23     29.99S
AURORA         DRIZZLE   47  47 100 E10       30.00S FOG
FRONT RANGE AP CLOUDY    50  48  93 NE12G18   30.01F FOG
ERIE MUNI ARPT CLOUDY    49  45  85 E10       30.05S
BOULDER MUN AP DRIZZLE   46  46 100 NE8       29.99S
CENTENNIAL     DRIZZLE   47  45  93 E9G17     29.98F
BROOMFIELD     DRIZZLE   48  46  93 E9        30.00F
FORT COLLINS   CLOUDY    48  45  89 E10       30.01S
LONGMONT       CLOUDY    51  47  86 E8        30.01F FOG
$$

COZ041-046-047-076>085-087-088-242100-
...PIKES PEAK/PALMER DIVIDE AND SOUTHERN FOOTHILLS...

CITY           SKY/WX    TMP DP  RH WIND       PRES   REMARKS
COLO. SPRINGS  PTSUNNY   55  46  71 SE13      29.98F
A. F. ACADEMY  CLOUDY    55  44  66 SE10      29.98F
SCHRIEVER AFB  PTSUNNY   52  49  88 SE8       29.99F
CHEYENNE MTN   CLOUDY    48  45  87 S10       29.95F
ELLICOTT       PTSUNNY  N/A N/A N/A SE10      29.98F
FALCON         CLOUDY    51  48  88 S12       30.02S
FORT CARSON    CLOUDY    54  47  76 SE8       29.96F
LIMON            N/A    N/A N/A N/A MISG      29.99F
MONUMENT HILL  CLOUDY    46  45  93 E14       30.02S
CANON CITY     CLOUDY    57  50  77 E10       29.95F
WALSENBURG     NOT AVBL
TRINIDAD       CLOUDY    57  51  80 E8        29.94F
$$

COZ042>045-048>051-090-091-242100-
...NORTHEAST COLORADO...

CITY           SKY/WX    TMP DP  RH WIND       PRES   REMARKS
GREELEY ARPT   CLOUDY    50  44  80 E10       30.01S
AKRON          CLOUDY    49  45  86 E10       30.00S
BURLINGTON     CLOUDY    52  50  93 NE12      29.98F
WRAY           CLOUDY    52  46  82 NE10      29.99F
YUMA           CLOUDY    48  45  87 NE10      30.00S
STERLING       LGT RAIN  50  46  87 E6        30.00S
HOLYOKE        CLOUDY    54  50  87 NE8       30.01S
FORT MORGAN    CLOUDY    49  46  90 E10       30.02F FOG
$$

COZ086-089-092>099-242100-
...SOUTHEAST COLORADO...

CITY           SKY/WX    TMP DP  RH WIND       PRES   REMARKS
PUEBLO         CLOUDY    57  50  77 E8        29.94F
LA JUNTA       CLOUDY    57  55  93 NE12      29.93F
LAMAR          CLOUDY    58  56  93 NE9       29.90F FOG
SPRINGFIELD      N/A     63  62  97 N7        29.90F
$$



USA.gov is the U.S. government's official web portal to all federal, state and local government web resources and services.